sat.trackr.live / text

‹ back to catalog

STARLINK-34995

NORAD 65285 · 2025-184N

PAYLOAD ACTIVE UNKNOWN

§ Identity

Operator
Country
US
Launch date
2025-08-22
Launch site
AFWTR
Launch vehicle
Mass (kg)
RCS (m²)

Purposes: comms

External: N2YO · Heavens-Above · Gunter

§ Orbital elements

Epoch: 2026-09-20T09:56:53.682144Z

Period
93.91 min
Inclination
97.2855°
Eccentricity
0.0000814
Mean motion
15.33451797 rev/d
Perigee alt
465.0 km
Apogee alt
466.1 km
Semi-major
6,843.7 km
B*
3.8429e-4
RAAN
311.4163°
Arg perigee
75.3842°
Mean anomaly
284.7491°
Rev number
6,071

§ Raw data

STARLINK-349951 65285U 25184N   26263.41451021  .00012354  00000+0  38429-3 0  99962 65285  97.2855 311.4163 0000814  75.3842 284.7491 15.33451797 60719

JSON: /api/v1/satellites/65285 · /tle

For live sub-satellite position, see the globe view (requires WebGL).

§ Visibility from observer

Set your observer location to see the next 7 days of passes ≥ 10°. The values pass through the URL so the page stays shareable.

No JS? Fill the form by hand. The geolocation button needs JavaScript.